Simultaneous Nadir Overpasses (SNOs) Predictions

Prediction of SNOs between AQUA and METOP-A Satellite Orbit:

Table of predicted SNOs for the next 14.0 days since TLE Epoch: 8/9/2014
Index Date (AQUA) Time (AQUA) Lat,Lon (AQUA) SZA (AQUA ) Date (METOP-A) Time (METOP-A) Lat,Lon (METOP-A) SZA (METOP-A ) Distance(km) Time Diff (sec)
1 08/09/2014 04:23:41 -73.75, -71.48 122.09 08/09/2014 04:22:35 -73.77, -71.53 122.06 2.28 66
2 08/09/2014 05:13:10 73.82, 96.01 58.00 08/09/2014 05:13:13 73.84, 95.98 58.02 2.51 3
3 08/09/2014 06:02:39 -74.01, -96.77 121.79 08/09/2014 06:03:51 -74.05, -96.20 121.79 18.01 72
4 08/11/2014 23:57:55 -73.77, -5.08 121.25 08/11/2014 23:56:58 -73.78, -5.10 121.23 1.26 57
5 08/12/2014 00:47:24 73.84, 162.40 58.84 08/12/2014 00:47:36 73.85, 162.41 58.85 1.15 12
6 08/12/2014 01:37:00 -74.39, -31.21 120.56 08/12/2014 01:38:07 -74.40, -28.89 120.64 69.17 67
7 08/14/2014 19:32:09 -73.76, 61.38 120.40 08/14/2014 19:31:22 -73.78, 61.32 120.37 2.98 47
8 08/14/2014 20:21:38 73.84,-131.15 59.69 08/14/2014 20:22:00 73.85,-131.18 59.71 1.89 22
9 08/17/2014 15:06:23 -73.78, 127.77 119.50 08/17/2014 15:05:46 -73.78, 127.72 119.49 1.79 37
10 08/17/2014 15:55:52 73.86, -64.77 60.60 08/17/2014 15:56:24 73.85, -64.78 60.59 1.72 32
11 08/20/2014 10:40:36 -73.83,-165.89 118.54 08/20/2014 10:40:08 -73.82,-165.78 118.55 3.72 28
12 08/20/2014 11:30:04 73.87, 1.67 61.52 08/20/2014 11:30:46 73.89, 1.72 61.53 2.74 42




NCC Satellite Simultaneous Nadir Overpasses (SNOs) Prediction Service
